Wind_Speed
72 74 76 78 79 81 82 84 85 86 83 81 81 81 83 84 84 85 86 85 84 84 84 85 86 86 87 87 87 87 87 86 85 84 83 81 79 78
75 77 78 79 80 80 81 81 82 83 81 76 75 75 76 76 76 76 76 75 74 74 75 77 78 79 80 81 82 83 83 83 83 82 82 81 79 78
76 77 78 78 78 78 78 77 77 77 77 72 71 70 70 69 67 67 66 66 66 67 68 70 72 73 74 75 76 77 78 79 79 79 78 78 77 76
76 77 76 76 75 74 74 73 72 72 72 68 64 63 62 62 61 61 61 62 61 61 62 63 64 65 66 67 68 70 71 73 74 75 74 74 73 73
76 75 74 73 72 71 70 68 67 66 65 63 59 56 56 57 57 57 57 56 56 56 56 56 57 58 59 60 61 62 65 67 68 69 71 71 71 71
73 72 71 70 68 67 65 63 62 61 60 58 55 53 52 53 53 53 52 52 52 52 51 51 51 52 54 55 55 56 58 60 62 64 66 67 68 68
70 69 67 66 64 63 61 59 58 57 55 54 52 51 50 50 49 49 48 48 47 47 47 47 48 48 50 51 52 52 53 55 58 60 62 63 64 65
67 66 64 62 60 59 57 56 55 54 52 52 51 49 47 47 46 46 45 44 43 43 44 43 44 43 45 46 48 50 51 53 54 56 58 60 62 62
65 63 60 58 57 56 54 53 52 51 51 50 49 47 46 45 45 43 42 41 39 39 40 39 40 40 41 42 44 45 47 49 51 52 54 57 59 61
63 60 58 56 54 53 52 50 49 48 48 47 46 45 44 43 43 41 40 39 38 37 38 37 37 38 39 40 41 42 43 45 47 48 50 52 55 57
59 57 55 53 51 51 50 48 46 45 44 44 43 42 41 40 40 39 38 38 37 35 36 36 36 36 37 37 38 39 40 41 43 45 47 49 51 53
56 54 52 50 49 48 47 46 43 42 41 41 40 39 38 38 38 38 37 37 35 33 33 34 34 35 35 35 37 38 39 40 41 43 45 47 49 51
53 50 48 47 46 45 44 43 41 40 39 38 37 36 36 36 36 36 36 35 34 32 32 33 33 33 34 34 35 37 38 38 40 41 44 46 48 49
51 49 47 45 44 42 41 40 39 38 37 37 36 35 35 35 34 34 34 33 32 31 31 31 32 32 33 33 33 34 36 37 39 40 42 44 46 48
49 47 45 43 41 40 39 38 37 37 36 35 34 34 34 33 33 33 32 32 32 31 31 31 30 31 31 32 32 33 34 35 36 38 40 42 44 46
47 45 43 41 40 38 38 37 36 35 35 34 33 32 32 32 32 32 31 31 31 30 30 31 31 31 30 31 31 32 33 34 35 37 39 40 42 44
44 41 39 38 37 36 36 35 34 34 34 33 32 31 31 31 30 30 30 30 29 29 30 30 31 30 30 30 30 31 32 33 35 36 37 39 40 42
42 39 37 36 35 35 34 33 33 33 33 32 32 31 30 29 29 28 28 28 28 29 29 29 30 30 30 30 30 31 31 32 33 34 35 35 36 39
39 37 36 35 35 34 34 33 33 32 32 31 31 30 29 28 28 27 27 27 27 28 28 28 29 29 29 30 31 31 31 31 31 32 32 33 34 36
38 36 35 35 35 34 33 33 33 32 32 31 30 30 29 28 27 27 27 27 27 27 28 28 29 29 29 29 30 31 32 32 31 31 31 32 33 34
36 35 35 35 34 33 33 33 32 32 32 31 31 30 30 29 29 28 28 28 28 28 28 28 29 30 30 29 29 30 31 31 31 31 31 31 32 33
35 34 34 34 34 33 33 33 32 32 32 31 31 31 31 30 30 29 29 29 29 28 29 29 30 30 30 30 29 30 30 31 32 32 32 32 32 32
35 34 34 34 33 33 33 33 32 32 32 32 32 31 31 31 31 31 30 30 30 30 29 29 30 30 30 30 30 31 31 32 32 32 32 33 33 33
Wind_Direction
296 296 295 295 294 293 292 291 290 288 286 285 284 282 281 279 278 276 275 273 271 268 266 264 263 261 259 258 257 256 256 255 255 255 255 254 254 255
298 297 297 296 295 294 292 291 291 290 289 288 286 284 282 281 279 278 277 275 273 271 268 266 264 262 260 258 257 256 255 254 254 253 253 253 253 253
299 299 298 296 295 294 293 292 291 291 290 289 287 285 283 282 280 279 278 277 275 273 270 268 265 263 261 259 257 255 254 253 252 252 252 252 252 252
301 300 298 297 296 295 294 293 292 291 291 290 288 286 284 282 281 280 279 279 277 275 273 270 267 264 262 259 257 255 253 252 251 250 250 250 250 250
302 301 300 299 298 297 295 294 293 292 291 291 290 287 285 283 282 281 280 279 278 276 274 271 268 265 262 260 258 256 254 252 251 249 248 247 247 247
303 302 301 300 299 298 296 295 294 293 292 291 290 288 286 285 284 282 280 279 278 277 275 272 269 266 263 260 258 256 253 251 249 249 247 247 247 246
303 302 301 300 299 298 297 296 294 293 292 291 290 289 288 287 285 284 282 280 278 277 275 273 270 267 264 259 256 254 252 250 248 247 246 245 245 245
304 303 302 300 299 298 297 296 295 294 293 291 291 290 289 287 286 285 283 281 279 277 275 273 271 268 265 262 258 255 252 250 248 247 245 244 243 244
305 304 302 300 299 298 297 296 295 295 294 293 292 291 289 288 286 285 284 283 281 278 275 272 270 268 265 262 259 257 254 251 249 247 246 245 244 244
305 304 302 301 299 298 297 296 295 294 293 293 292 291 290 288 286 285 284 283 282 280 277 274 270 268 265 263 261 258 255 252 250 248 246 245 244 245
305 304 302 301 300 299 298 297 295 294 293 293 292 292 291 289 287 285 285 284 283 280 278 275 271 267 265 263 261 258 256 253 251 249 247 246 245 245
306 304 303 302 301 300 299 298 296 295 293 292 292 291 290 289 287 286 285 284 284 281 278 275 272 268 266 263 261 259 258 256 253 251 249 247 246 245
306 304 303 301 301 300 299 298 297 295 294 293 292 290 289 288 286 285 285 285 284 282 279 276 273 271 268 264 262 260 258 257 255 253 251 249 247 246
306 305 303 302 301 300 299 298 297 296 295 294 293 291 290 288 285 284 283 283 283 282 280 278 275 272 269 267 264 262 260 258 257 255 253 251 249 247
306 305 303 302 300 299 299 299 297 297 296 295 294 292 291 288 286 284 282 282 282 282 281 280 277 274 271 269 266 264 262 260 258 256 254 253 251 249
305 304 303 301 300 299 299 298 297 297 296 296 295 294 292 289 287 285 282 281 281 281 281 280 278 276 274 271 269 266 264 261 259 258 256 255 253 251
304 303 301 300 299 298 298 297 297 297 296 295 295 295 294 292 289 286 284 282 281 281 280 280 278 276 274 273 272 269 266 264 262 261 260 257 254 251
305 303 301 300 299 298 297 296 295 296 295 295 295 296 295 293 290 287 284 282 282 281 280 279 278 277 276 274 272 271 269 268 266 264 262 258 255 252
304 303 301 300 300 299 297 296 295 295 295 295 295 295 295 294 292 289 286 283 282 282 281 280 279 278 277 274 272 271 270 268 267 265 263 259 255 252
304 303 302 301 300 299 298 296 295 294 294 294 293 294 294 293 293 291 288 286 284 282 281 280 280 279 277 275 273 272 271 268 267 266 264 260 257 254
304 303 302 301 300 299 298 297 295 294 293 292 292 292 292 292 291 290 289 288 285 283 281 280 280 280 279 277 275 272 269 268 266 266 264 261 258 256
303 302 302 301 300 299 298 297 296 294 292 292 291 290 290 290 290 289 288 287 286 284 282 280 280 280 279 277 275 272 270 268 267 266 264 262 259 256
302 302 302 300 299 298 298 297 296 294 293 291 290 290 289 289 289 289 287 286 285 283 281 280 280 281 280 278 276 273 271 269 268 266 264 261 259 256
Height
5636 5629 5621 5614 5605 5597 5589 5581 5574 5571 5574 5572 5562 5553 5546 5541 5537 5533 5533 5532 5530 5529 5529 5530 5532 5535 5539 5542 5547 5551 5556 5561 5566 5571 5576 5582 5587 5592
5615 5607 5599 5590 5582 5573 5565 5557 5548 5540 5541 5545 5535 5527 5520 5515 5511 5507 5505 5504 5503 5502 5501 5502 5505 5508 5511 5516 5520 5524 5529 5535 5540 5546 5552 5558 5564 5570
5594 5585 5576 5567 5559 5550 5542 5534 5526 5517 5512 5518 5511 5504 5497 5492 5489 5485 5483 5481 5480 5479 5477 5478 5479 5482 5486 5490 5494 5499 5504 5510 5516 5522 5529 5535 5542 5549
5572 5562 5553 5544 5536 5528 5519 5512 5504 5496 5489 5490 5489 5483 5477 5472 5468 5466 5463 5461 5459 5458 5456 5456 5457 5460 5463 5466 5471 5476 5481 5486 5493 5499 5507 5515 5521 5526
5550 5540 5531 5522 5514 5506 5498 5491 5484 5477 5470 5467 5467 5463 5459 5454 5450 5448 5445 5443 5440 5439 5438 5438 5438 5440 5442 5446 5450 5455 5460 5466 5472 5478 5484 5491 5499 5506
5528 5519 5510 5501 5493 5486 5479 5472 5465 5459 5454 5449 5447 5445 5441 5437 5433 5430 5428 5426 5424 5422 5421 5421 5421 5422 5425 5428 5432 5436 5440 5445 5451 5457 5464 5471 5478 5485
5509 5499 5490 5482 5474 5467 5460 5454 5448 5443 5438 5433 5430 5428 5425 5421 5417 5414 5411 5410 5409 5407 5405 5405 5405 5407 5408 5411 5414 5417 5422 5427 5432 5438 5444 5451 5458 5466
5490 5481 5473 5464 5457 5450 5444 5438 5432 5427 5422 5418 5415 5412 5409 5405 5402 5399 5397 5395 5395 5394 5391 5392 5391 5392 5393 5395 5398 5401 5405 5409 5415 5420 5426 5432 5439 5446
5471 5463 5455 5448 5440 5434 5428 5423 5417 5412 5407 5403 5400 5397 5394 5391 5387 5385 5383 5381 5380 5379 5378 5378 5378 5379 5380 5381 5383 5386 5390 5394 5399 5404 5409 5415 5421 5428
5453 5445 5438 5432 5424 5418 5413 5409 5404 5399 5393 5389 5385 5382 5380 5377 5374 5372 5370 5369 5368 5367 5365 5365 5366 5366 5367 5368 5370 5373 5376 5380 5384 5388 5393 5399 5404 5411
5437 5429 5422 5416 5409 5403 5398 5394 5390 5385 5380 5376 5372 5369 5367 5364 5361 5359 5357 5356 5355 5355 5353 5352 5353 5354 5355 5357 5358 5360 5362 5366 5370 5374 5379 5383 5389 5394
5423 5415 5407 5400 5395 5389 5383 5379 5375 5372 5368 5364 5361 5357 5354 5352 5349 5347 5345 5343 5343 5343 5342 5341 5341 5341 5343 5345 5346 5348 5350 5353 5356 5360 5364 5369 5373 5378
5408 5401 5394 5387 5382 5376 5370 5366 5362 5359 5355 5352 5349 5346 5343 5340 5338 5336 5334 5332 5331 5331 5331 5330 5330 5330 5331 5333 5335 5336 5338 5340 5343 5346 5350 5354 5358 5364
5393 5387 5381 5374 5369 5364 5359 5355 5350 5347 5344 5341 5338 5335 5332 5330 5327 5325 5323 5321 5321 5320 5320 5319 5319 5319 5320 5321 5323 5324 5326 5328 5330 5333 5336 5339 5344 5348
5378 5372 5367 5361 5357 5352 5348 5343 5339 5336 5332 5330 5327 5324 5321 5318 5316 5314 5312 5311 5310 5309 5309 5308 5308 5308 5309 5310 5312 5313 5314 5316 5318 5320 5323 5326 5329 5333
5365 5360 5354 5349 5344 5340 5337 5333 5329 5325 5322 5319 5316 5313 5310 5307 5305 5303 5302 5301 5300 5299 5298 5298 5297 5298 5298 5299 5300 5301 5302 5304 5306 5307 5309 5312 5315 5318
5352 5348 5343 5338 5334 5330 5326 5322 5318 5315 5312 5309 5306 5303 5300 5297 5294 5292 5291 5290 5290 5289 5288 5287 5287 5287 5287 5288 5289 5289 5290 5292 5293 5294 5296 5299 5301 5304
5339 5335 5331 5327 5323 5319 5316 5312 5309 5305 5302 5299 5296 5293 5290 5287 5285 5282 5281 5280 5280 5279 5278 5277 5277 5276 5277 5277 5278 5278 5279 5280 5280 5281 5283 5285 5287 5290
5328 5324 5320 5316 5312 5308 5305 5302 5298 5295 5292 5289 5286 5283 5280 5278 5275 5273 5272 5271 5270 5269 5268 5267 5266 5266 5266 5267 5267 5266 5267 5268 5268 5269 5270 5272 5275 5277
5317 5313 5309 5305 5301 5298 5294 5291 5288 5285 5282 5279 5276 5274 5271 5269 5266 5264 5263 5261 5260 5259 5258 5258 5257 5256 5256 5256 5256 5256 5255 5256 5257 5258 5259 5260 5262 5265
5306 5302 5298 5294 5291 5287 5284 5281 5278 5275 5272 5269 5267 5264 5261 5259 5257 5255 5253 5252 5250 5249 5249 5248 5246 5245 5245 5245 5245 5245 5244 5244 5245 5246 5247 5249 5251 5253
5296 5292 5288 5284 5280 5277 5273 5270 5267 5264 5262 5259 5256 5254 5252 5249 5247 5245 5243 5242 5240 5239 5238 5237 5236 5235 5234 5234 5234 5234 5234 5234 5234 5235 5236 5237 5239 5241
5285 5281 5277 5274 5270 5266 5263 5260 5257 5254 5251 5248 5246 5244 5241 5239 5237 5235 5233 5231 5230 5228 5227 5226 5225 5224 5223 5223 5223 5222 5222 5222 5222 5223 5224 5225 5226 5228